Time,TemperatureF,DewpointF,PressureIn,WindDirection,WindDirectionDegrees,WindSpeedMPH,WindSpeedGustMPH,Humidity,HourlyPrecipIn,Conditions,Clouds,dailyrainin,SoftwareType,DateUTC
2012-01-01 00:01:00,45.7,45.7,31.60,WSW,239,6.3,6.3,100,0.00,,,0.00,VWS V13.01,2012-01-01 06:01:00,
2012-01-01 00:06:00,48.4,45.6,31.60,WSW,243,7.6,9.2,90,0.00,,,0.00,VWS V13.01,2012-01-01 06:06:00,
2012-01-01 00:11:00,50.9,42.6,31.60,WSW,242,5.8,8.1,73,0.00,,,0.00,VWS V13.01,2012-01-01 06:11:00,
2012-01-01 00:16:00,52.0,41.0,31.60,SW,232,8.3,8.3,66,0.00,,,0.00,VWS V13.01,2012-01-01 06:16:00,
2012-01-01 00:21:00,52.7,40.9,31.60,SW,227,8.1,8.3,64,0.00,,,0.00,VWS V13.01,2012-01-01 06:21:00,
2012-01-01 00:26:00,52.9,40.6,31.60,WSW,243,10.1,10.1,63,0.00,,,0.00,VWS V13.01,2012-01-01 06:26:00,
2012-01-01 00:31:00,53.1,39.6,31.60,SW,235,8.1,8.1,60,0.00,,,0.00,VWS V13.01,2012-01-01 06:31:00,
2012-01-01 00:36:00,53.4,38.1,31.60,West,266,9.2,12.8,56,0.00,,,0.00,VWS V13.01,2012-01-01 06:36:00,
2012-01-01 00:41:00,53.6,37.4,31.60,SW,236,8.7,14.5,54,0.00,,,0.00,VWS V13.01,2012-01-01 06:41:00,
2012-01-01 00:46:00,53.2,36.6,31.60,WSW,246,10.5,10.5,53,0.00,,,0.00,VWS V13.01,2012-01-01 06:46:00,
2012-01-01 00:51:00,53.6,35.9,31.60,WSW,246,10.5,12.8,51,0.00,,,0.00,VWS V13.01,2012-01-01 06:51:00,
2012-01-01 00:56:00,53.8,35.6,31.60,WSW,246,10.5,10.5,50,0.00,,,0.00,VWS V13.01,2012-01-01 06:56:00,
2012-01-01 01:01:00,53.6,34.9,31.60,WSW,248,11.0,12.8,49,0.00,,,0.00,VWS V13.01,2012-01-01 07:01:00,
2012-01-01 01:06:00,53.8,34.6,31.60,SW,223,11.4,11.4,48,0.00,,,0.00,VWS V13.01,2012-01-01 07:06:00,
2012-01-01 01:11:00,53.6,33.3,31.60,WSW,258,10.5,11.0,46,0.00,,,0.00,VWS V13.01,2012-01-01 07:11:00,
2012-01-01 01:16:00,53.6,32.8,31.60,West,260,8.3,8.7,45,0.00,,,0.00,VWS V13.01,2012-01-01 07:16:00,
2012-01-01 01:21:00,53.8,33.0,31.60,SW,228,8.1,10.1,45,0.00,,,0.00,VWS V13.01,2012-01-01 07:21:00,
2012-01-01 01:26:00,53.6,32.2,31.60,SW,235,11.0,12.8,44,0.00,,,0.00,VWS V13.01,2012-01-01 07:26:00,
2012-01-01 01:31:00,53.6,32.2,31.60,West,259,8.7,11.4,44,0.00,,,0.00,VWS V13.01,2012-01-01 07:31:00,
2012-01-01 01:36:00,53.6,32.8,31.60,West,266,12.8,12.8,45,0.00,,,0.00,VWS V13.01,2012-01-01 07:36:00,
2012-01-01 01:41:00,53.6,33.3,31.60,West,266,11.0,15.4,46,0.00,,,0.00,VWS V13.01,2012-01-01 07:41:00,
2012-01-01 01:46:00,53.4,33.7,31.60,WSW,247,10.1,13.2,47,0.00,,,0.00,VWS V13.01,2012-01-01 07:46:00,
2012-01-01 01:51:00,53.2,35.1,31.60,West,260,10.5,13.2,50,0.00,,,0.00,VWS V13.01,2012-01-01 07:51:00,
2012-01-01 01:56:00,52.9,35.3,31.60,West,263,8.1,10.1,51,0.00,,,0.00,VWS V13.01,2012-01-01 07:56:00,
2012-01-01 02:01:00,52.7,35.1,31.60,WSW,238,8.7,8.7,51,0.00,,,0.00,VWS V13.01,2012-01-01 08:01:00,
2012-01-01 02:06:00,52.3,35.2,31.60,West,260,7.6,10.1,52,0.00,,,0.00,VWS V13.01,2012-01-01 08:06:00,
2012-01-01 02:11:00,51.8,34.8,31.60,WSW,258,8.3,8.3,52,0.00,,,0.00,VWS V13.01,2012-01-01 08:11:00,
2012-01-01 02:16:00,51.6,35.5,31.60,WSW,254,10.5,15.9,54,0.00,,,0.00,VWS V13.01,2012-01-01 08:16:00,
2012-01-01 02:21:00,51.6,35.5,31.60,West,271,8.3,11.0,54,0.00,,,0.00,VWS V13.01,2012-01-01 08:21:00,
2012-01-01 02:26:00,51.3,35.7,31.60,WSW,256,6.3,10.1,55,0.00,,,0.00,VWS V13.01,2012-01-01 08:26:00,
2012-01-01 02:31:00,51.3,35.7,31.60,WNW,286,13.2,13.2,55,0.00,,,0.00,VWS V13.01,2012-01-01 08:31:00,
2012-01-01 02:36:00,51.1,35.5,31.60,WSW,257,4.0,7.6,55,0.00,,,0.00,VWS V13.01,2012-01-01 08:36:00,
2012-01-01 02:41:00,51.1,35.5,31.60,WSW,256,5.4,10.1,55,0.00,,,0.00,VWS V13.01,2012-01-01 08:41:00,
2012-01-01 02:46:00,50.9,35.3,31.60,West,278,12.3,12.8,55,0.00,,,0.00,VWS V13.01,2012-01-01 08:46:00,
2012-01-01 02:51:00,50.9,35.8,31.60,WSW,251,4.0,8.7,56,0.00,,,0.00,VWS V13.01,2012-01-01 08:51:00,
2012-01-01 02:56:00,51.1,35.5,31.60,West,262,5.8,8.3,55,0.00,,,0.00,VWS V13.01,2012-01-01 08:56:00,
2012-01-01 03:01:00,50.9,35.8,31.60,West,259,8.7,12.8,56,0.00,,,0.00,VWS V13.01,2012-01-01 09:01:00,
2012-01-01 03:06:00,50.7,35.6,31.60,West,274,8.3,8.7,56,0.00,,,0.00,VWS V13.01,2012-01-01 09:06:00,
2012-01-01 03:11:00,50.7,35.6,31.60,WSW,253,15.0,15.0,56,0.00,,,0.00,VWS V13.01,2012-01-01 09:11:00,
2012-01-01 03:16:00,50.7,35.6,31.60,SW,227,11.0,11.0,56,0.00,,,0.00,VWS V13.01,2012-01-01 09:16:00,
2012-01-01 03:21:00,50.4,35.7,31.60,West,266,5.4,8.3,57,0.00,,,0.00,VWS V13.01,2012-01-01 09:21:00,
2012-01-01 03:26:00,50.2,35.5,31.60,West,269,6.3,6.3,57,0.00,,,0.00,VWS V13.01,2012-01-01 09:26:00,
2012-01-01 03:31:00,50.0,35.8,31.60,SW,225,4.9,5.8,58,0.00,,,0.00,VWS V13.01,2012-01-01 09:31:00,
2012-01-01 03:36:00,49.8,36.1,31.60,West,275,6.3,6.3,59,0.00,,,0.00,VWS V13.01,2012-01-01 09:36:00,
2012-01-01 03:41:00,50.0,36.2,31.60,SW,236,6.3,8.7,59,0.00,,,0.00,VWS V13.01,2012-01-01 09:41:00,
2012-01-01 03:46:00,49.8,36.5,31.60,West,274,6.3,7.2,60,0.00,,,0.00,VWS V13.01,2012-01-01 09:46:00,
2012-01-01 03:51:00,49.5,36.6,31.60,WSW,246,5.4,7.6,61,0.00,,,0.00,VWS V13.01,2012-01-01 09:51:00,
2012-01-01 03:56:00,49.3,36.8,31.60,SW,226,8.7,10.1,62,0.00,,,0.00,VWS V13.01,2012-01-01 09:56:00,
2012-01-01 04:01:00,49.5,36.6,31.60,WSW,242,8.3,11.0,61,0.00,,,0.00,VWS V13.01,2012-01-01 10:01:00,
2012-01-01 04:06:00,49.8,36.5,31.60,West,260,8.3,10.1,60,0.00,,,0.00,VWS V13.01,2012-01-01 10:06:00,
2012-01-01 04:11:00,49.8,36.5,31.60,WSW,257,10.5,11.0,60,0.00,,,0.00,VWS V13.01,2012-01-01 10:11:00,
2012-01-01 04:16:00,50.0,35.8,31.60,West,269,5.4,5.8,58,0.00,,,0.00,VWS V13.01,2012-01-01 10:16:00,
2012-01-01 04:21:00,50.0,35.4,31.60,NNW,330,3.1,8.3,57,0.00,,,0.00,VWS V13.01,2012-01-01 10:21:00,
2012-01-01 04:26:00,50.0,35.4,31.60,SW,219,6.3,11.0,57,0.00,,,0.00,VWS V13.01,2012-01-01 10:26:00,
2012-01-01 04:31:00,49.6,35.0,31.60,West,276,8.1,8.1,57,0.00,,,0.00,VWS V13.01,2012-01-01 10:31:00,
2012-01-01 04:36:00,49.8,34.8,31.60,WNW,292,8.1,12.3,56,0.00,,,0.00,VWS V13.01,2012-01-01 10:36:00,
2012-01-01 04:41:00,49.8,34.3,31.60,WNW,289,5.8,5.8,55,0.00,,,0.00,VWS V13.01,2012-01-01 10:41:00,
2012-01-01 04:46:00,49.5,34.4,31.60,NW,306,5.8,10.5,56,0.00,,,0.00,VWS V13.01,2012-01-01 10:46:00,
2012-01-01 04:51:00,49.3,34.3,31.60,NW,309,5.8,6.3,56,0.00,,,0.00,VWS V13.01,2012-01-01 10:51:00,
2012-01-01 04:56:00,49.1,34.1,31.60,West,268,5.4,5.4,56,0.00,,,0.00,VWS V13.01,2012-01-01 10:56:00,
2012-01-01 05:01:00,48.9,33.9,31.60,NW,310,7.6,13.2,56,0.00,,,0.00,VWS V13.01,2012-01-01 11:01:00,
2012-01-01 05:06:00,49.1,33.7,31.60,West,259,6.3,6.3,55,0.00,,,0.00,VWS V13.01,2012-01-01 11:06:00,
2012-01-01 05:11:00,48.7,33.3,31.60,West,267,8.7,11.4,55,0.00,,,0.00,VWS V13.01,2012-01-01 11:11:00,
2012-01-01 05:16:00,48.7,33.8,31.60,West,268,8.1,10.1,56,0.00,,,0.00,VWS V13.01,2012-01-01 11:16:00,
2012-01-01 05:21:00,48.6,33.6,31.60,West,268,8.3,8.3,56,0.00,,,0.00,VWS V13.01,2012-01-01 11:21:00,
2012-01-01 05:26:00,48.6,33.6,31.60,WSW,255,11.4,13.2,56,0.00,,,0.00,VWS V13.01,2012-01-01 11:26:00,
2012-01-01 05:31:00,48.7,33.3,31.60,WSW,255,8.1,10.1,55,0.00,,,0.00,VWS V13.01,2012-01-01 11:31:00,
2012-01-01 05:36:00,48.6,33.1,31.60,West,267,7.2,7.6,55,0.00,,,0.00,VWS V13.01,2012-01-01 11:36:00,
2012-01-01 05:41:00,48.4,33.0,31.60,WNW,296,9.6,9.6,55,0.00,,,0.00,VWS V13.01,2012-01-01 11:41:00,
2012-01-01 05:46:00,48.2,32.8,31.60,WNW,297,5.4,5.4,55,0.00,,,0.00,VWS V13.01,2012-01-01 11:46:00,
2012-01-01 05:51:00,48.0,33.1,31.60,NW,304,3.6,6.3,56,0.00,,,0.00,VWS V13.01,2012-01-01 11:51:00,
2012-01-01 05:56:00,47.7,32.8,31.60,West,269,6.3,6.3,56,0.00,,,0.00,VWS V13.01,2012-01-01 11:56:00,
2012-01-01 06:01:00,47.5,32.6,31.60,NNW,331,3.1,3.1,56,0.00,,,0.00,VWS V13.01,2012-01-01 12:01:00,
2012-01-01 06:06:00,47.3,32.4,31.60,West,261,3.6,4.0,56,0.00,,,0.00,VWS V13.01,2012-01-01 12:06:00,
2012-01-01 06:11:00,47.3,32.4,31.60,SW,225,5.4,5.4,56,0.00,,,0.00,VWS V13.01,2012-01-01 12:11:00,
2012-01-01 06:16:00,46.9,32.5,31.60,SW,235,3.6,3.6,57,0.00,,,0.00,VWS V13.01,2012-01-01 12:16:00,
2012-01-01 06:21:00,46.6,32.2,31.60,WSW,244,4.9,5.8,57,0.00,,,0.00,VWS V13.01,2012-01-01 12:21:00,
2012-01-01 06:26:00,46.4,32.0,31.60,SW,233,7.6,7.6,57,0.00,,,0.00,VWS V13.01,2012-01-01 12:26:00,
2012-01-01 06:31:00,46.2,32.3,31.60,West,264,5.4,7.6,58,0.00,,,0.00,VWS V13.01,2012-01-01 12:31:00,
2012-01-01 06:36:00,46.0,32.1,31.60,WSW,242,5.8,6.7,58,0.00,,,0.00,VWS V13.01,2012-01-01 12:36:00,
2012-01-01 06:41:00,45.9,31.5,31.60,SW,236,11.0,11.0,57,0.00,,,0.00,VWS V13.01,2012-01-01 12:41:00,
2012-01-01 06:46:00,46.0,31.7,31.60,West,259,5.4,6.7,57,0.00,,,0.00,VWS V13.01,2012-01-01 12:46:00,
2012-01-01 06:51:00,45.9,31.5,31.60,WSW,256,3.6,5.8,57,0.00,,,0.00,VWS V13.01,2012-01-01 12:51:00,
2012-01-01 06:56:00,45.7,31.3,31.60,West,263,5.4,6.3,57,0.00,,,0.00,VWS V13.01,2012-01-01 12:56:00,
2012-01-01 07:01:00,45.3,31.0,31.60,SW,234,6.3,6.3,57,0.00,,,0.00,VWS V13.01,2012-01-01 13:01:00,
2012-01-01 07:06:00,45.3,31.0,31.60,SW,231,4.0,4.9,57,0.00,,,0.00,VWS V13.01,2012-01-01 13:06:00,
2012-01-01 07:11:00,45.1,30.8,31.60,WSW,241,3.1,6.3,57,0.00,,,0.00,VWS V13.01,2012-01-01 13:11:00,
2012-01-01 07:16:00,45.0,31.1,31.60,WSW,237,4.0,5.8,58,0.00,,,0.00,VWS V13.01,2012-01-01 13:16:00,
2012-01-01 07:21:00,44.6,30.8,31.60,SW,233,4.5,5.4,58,0.00,,,0.00,VWS V13.01,2012-01-01 13:21:00,
2012-01-01 07:26:00,44.4,30.6,31.60,WSW,240,5.4,5.8,58,0.00,,,0.00,VWS V13.01,2012-01-01 13:26:00,
2012-01-01 07:31:00,44.1,30.2,31.60,WSW,239,4.5,5.8,58,0.00,,,0.00,VWS V13.01,2012-01-01 13:31:00,
2012-01-01 07:36:00,44.1,30.7,31.60,SW,236,5.8,5.8,59,0.00,,,0.00,VWS V13.01,2012-01-01 13:36:00,
2012-01-01 07:41:00,43.9,30.9,31.60,SW,227,5.4,7.6,60,0.00,,,0.00,VWS V13.01,2012-01-01 13:41:00,
2012-01-01 07:46:00,43.7,30.7,31.60,SW,234,4.9,5.4,60,0.00,,,0.00,VWS V13.01,2012-01-01 13:46:00,
2012-01-01 07:51:00,43.7,30.3,31.60,SW,214,5.4,6.3,59,0.00,,,0.00,VWS V13.01,2012-01-01 13:51:00,
2012-01-01 07:56:00,44.1,30.7,31.60,WSW,243,11.4,11.4,59,0.00,,,0.00,VWS V13.01,2012-01-01 13:56:00,
2012-01-01 08:01:00,44.8,30.9,31.60,SW,230,6.3,8.7,58,0.00,,,0.00,VWS V13.01,2012-01-01 14:01:00,
2012-01-01 08:06:00,44.6,30.3,31.60,SW,236,10.1,10.1,57,0.00,,,0.00,VWS V13.01,2012-01-01 14:06:00,
2012-01-01 08:11:00,44.8,30.5,31.60,West,263,4.9,5.8,57,0.00,,,0.00,VWS V13.01,2012-01-01 14:11:00,
2012-01-01 08:16:00,45.1,30.8,31.60,SW,229,6.3,8.3,57,0.00,,,0.00,VWS V13.01,2012-01-01 14:16:00,
2012-01-01 08:21:00,45.1,31.3,31.60,SW,220,4.9,5.8,58,0.00,,,0.00,VWS V13.01,2012-01-01 14:21:00,
2012-01-01 08:26:00,45.1,31.3,31.60,WSW,242,7.6,7.6,58,0.00,,,0.00,VWS V13.01,2012-01-01 14:26:00,
2012-01-01 08:31:00,45.3,31.0,31.60,WSW,255,8.1,8.3,57,0.00,,,0.00,VWS V13.01,2012-01-01 14:31:00,
2012-01-01 08:36:00,45.7,31.3,31.60,WSW,245,8.7,8.7,57,0.00,,,0.00,VWS V13.01,2012-01-01 14:36:00,
2012-01-01 08:41:00,46.0,31.2,31.60,SSW,210,5.8,8.1,56,0.00,,,0.00,VWS V13.01,2012-01-01 14:41:00,
2012-01-01 08:46:00,46.6,30.8,31.60,WNW,302,3.1,7.6,54,0.00,,,0.00,VWS V13.01,2012-01-01 14:46:00,
2012-01-01 08:51:00,47.1,30.9,31.60,WSW,250,4.5,7.6,53,0.00,,,0.00,VWS V13.01,2012-01-01 14:51:00,
2012-01-01 08:56:00,47.5,31.2,31.60,WNW,301,5.4,8.1,53,0.00,,,0.00,VWS V13.01,2012-01-01 14:56:00,
2012-01-01 09:01:00,47.7,31.4,31.60,NW,311,8.3,8.3,53,0.00,,,0.00,VWS V13.01,2012-01-01 15:01:00,
2012-01-01 09:06:00,47.5,31.2,31.60,West,264,5.8,8.1,53,0.00,,,0.00,VWS V13.01,2012-01-01 15:06:00,
2012-01-01 09:11:00,47.5,30.8,31.60,WSW,258,8.7,11.0,52,0.00,,,0.00,VWS V13.01,2012-01-01 15:11:00,
2012-01-01 09:16:00,47.7,30.9,31.60,WNW,293,5.4,5.8,52,0.00,,,0.00,VWS V13.01,2012-01-01 15:16:00,
2012-01-01 09:21:00,48.0,31.2,31.60,NW,316,4.9,6.3,52,0.00,,,0.00,VWS V13.01,2012-01-01 15:21:00,
2012-01-01 09:26:00,48.0,31.2,31.60,NW,310,5.4,8.3,52,0.00,,,0.00,VWS V13.01,2012-01-01 15:26:00,
2012-01-01 09:31:00,48.4,31.1,31.60,NW,310,5.8,5.8,51,0.00,,,0.00,VWS V13.01,2012-01-01 15:31:00,
2012-01-01 09:36:00,48.6,31.3,31.60,West,268,4.0,6.3,51,0.00,,,0.00,VWS V13.01,2012-01-01 15:36:00,
2012-01-01 09:41:00,48.6,31.3,31.60,WSW,258,7.6,8.3,51,0.00,,,0.00,VWS V13.01,2012-01-01 15:41:00,
2012-01-01 09:46:00,48.9,30.6,31.60,WNW,286,7.6,8.1,49,0.00,,,0.00,VWS V13.01,2012-01-01 15:46:00,
2012-01-01 09:51:00,49.5,30.6,31.60,WNW,303,3.6,3.6,48,0.00,,,0.00,VWS V13.01,2012-01-01 15:51:00,
2012-01-01 09:56:00,49.3,30.4,31.60,WNW,293,5.4,8.1,48,0.00,,,0.00,VWS V13.01,2012-01-01 15:56:00,
2012-01-01 10:01:00,49.3,30.4,31.60,NW,319,4.0,5.8,48,0.00,,,0.00,VWS V13.01,2012-01-01 16:01:00,
2012-01-01 10:06:00,49.5,30.1,31.60,WSW,250,5.4,6.3,47,0.00,,,0.00,VWS V13.01,2012-01-01 16:06:00,
2012-01-01 10:11:00,49.8,30.4,31.60,West,270,5.4,5.4,47,0.00,,,0.00,VWS V13.01,2012-01-01 16:11:00,
2012-01-01 10:16:00,49.6,30.2,31.60,NW,308,6.3,6.3,47,0.00,,,0.00,VWS V13.01,2012-01-01 16:16:00,
2012-01-01 10:21:00,49.6,30.2,31.60,WNW,301,5.8,5.8,47,0.00,,,0.00,VWS V13.01,2012-01-01 16:21:00,
2012-01-01 10:26:00,50.0,29.5,31.60,NW,316,6.3,6.3,45,0.00,,,0.00,VWS V13.01,2012-01-01 16:26:00,
2012-01-01 10:31:00,50.2,29.7,31.60,West,281,8.3,8.3,45,0.00,,,0.00,VWS V13.01,2012-01-01 16:31:00,
2012-01-01 10:36:00,50.4,29.3,31.60,WNW,298,12.3,12.3,44,0.00,,,0.00,VWS V13.01,2012-01-01 16:36:00,
2012-01-01 10:41:00,50.4,29.8,31.60,NW,304,7.6,10.1,45,0.00,,,0.00,VWS V13.01,2012-01-01 16:41:00,
2012-01-01 10:46:00,50.5,29.5,31.60,West,269,5.4,5.4,44,0.00,,,0.00,VWS V13.01,2012-01-01 16:46:00,
2012-01-01 10:51:00,51.3,30.1,31.60,WSW,258,6.3,8.3,44,0.00,,,0.00,VWS V13.01,2012-01-01 16:51:00,
2012-01-01 10:56:00,51.4,30.3,31.60,West,264,6.3,10.1,44,0.00,,,0.00,VWS V13.01,2012-01-01 16:56:00,
2012-01-01 11:01:00,51.6,29.9,31.60,WNW,283,6.3,6.3,43,0.00,,,0.00,VWS V13.01,2012-01-01 17:01:00,
2012-01-01 11:06:00,51.6,29.9,31.60,West,262,4.0,4.9,43,0.00,,,0.00,VWS V13.01,2012-01-01 17:06:00,
2012-01-01 11:11:00,51.6,29.3,31.60,NW,314,13.2,13.2,42,0.00,,,0.00,VWS V13.01,2012-01-01 17:11:00,
2012-01-01 11:16:00,51.8,29.5,31.60,NW,312,5.4,5.8,42,0.00,,,0.00,VWS V13.01,2012-01-01 17:16:00,
2012-01-01 11:21:00,51.8,29.5,31.60,NNW,327,5.8,8.3,42,0.00,,,0.00,VWS V13.01,2012-01-01 17:21:00,
2012-01-01 11:26:00,51.8,29.5,31.60,West,274,7.6,7.6,42,0.00,,,0.00,VWS V13.01,2012-01-01 17:26:00,
2012-01-01 11:31:00,52.2,29.8,31.60,WSW,246,6.3,6.3,42,0.00,,,0.00,VWS V13.01,2012-01-01 17:31:00,
2012-01-01 11:36:00,52.0,29.6,31.60,WSW,250,13.2,13.2,42,0.00,,,0.00,VWS V13.01,2012-01-01 17:36:00,
2012-01-01 11:41:00,52.0,29.6,31.60,NW,319,6.3,6.3,42,0.00,,,0.00,VWS V13.01,2012-01-01 17:41:00,
2012-01-01 11:46:00,53.1,30.6,31.60,WNW,288,5.8,5.8,42,0.00,,,0.00,VWS V13.01,2012-01-01 17:46:00,
2012-01-01 11:51:00,53.1,30.0,31.60,NW,316,5.8,5.8,41,0.00,,,0.00,VWS V13.01,2012-01-01 17:51:00,
2012-01-01 11:56:00,53.2,30.2,31.60,NW,308,4.9,7.6,41,0.00,,,0.00,VWS V13.01,2012-01-01 17:56:00,
2012-01-01 12:01:00,53.4,30.3,31.60,WNW,298,8.7,10.5,41,0.00,,,0.00,VWS V13.01,2012-01-01 18:01:00,
2012-01-01 12:06:00,53.4,30.3,31.60,WNW,287,4.9,4.9,41,0.00,,,0.00,VWS V13.01,2012-01-01 18:06:00,
2012-01-01 12:11:00,53.6,30.5,31.60,NW,305,5.8,8.7,41,0.00,,,0.00,VWS V13.01,2012-01-01 18:11:00,
2012-01-01 12:16:00,54.1,30.4,31.60,NW,308,8.7,8.7,40,0.00,,,0.00,VWS V13.01,2012-01-01 18:16:00,
2012-01-01 12:21:00,54.3,31.1,31.60,NW,304,7.6,10.1,41,0.00,,,0.00,VWS V13.01,2012-01-01 18:21:00,
2012-01-01 12:26:00,54.0,30.2,31.60,WNW,300,7.2,7.6,40,0.00,,,0.00,VWS V13.01,2012-01-01 18:26:00,
2012-01-01 12:31:00,54.5,30.7,31.60,West,263,5.8,5.8,40,0.00,,,0.00,VWS V13.01,2012-01-01 18:31:00,
2012-01-01 12:36:00,54.5,30.7,31.60,WSW,257,6.3,8.1,40,0.00,,,0.00,VWS V13.01,2012-01-01 18:36:00,
2012-01-01 12:41:00,54.5,29.4,31.60,WSW,248,5.8,7.2,38,0.00,,,0.00,VWS V13.01,2012-01-01 18:41:00,
2012-01-01 12:46:00,54.9,29.8,31.60,NW,318,5.8,5.8,38,0.00,,,0.00,VWS V13.01,2012-01-01 18:46:00,
2012-01-01 12:51:00,55.2,30.1,31.60,NW,305,4.0,4.0,38,0.00,,,0.00,VWS V13.01,2012-01-01 18:51:00,
2012-01-01 12:56:00,56.1,30.2,31.60,North,349,4.9,5.8,37,0.00,,,0.00,VWS V13.01,2012-01-01 18:56:00,
2012-01-01 13:01:00,56.3,30.4,31.60,WSW,252,3.1,11.0,37,0.00,,,0.00,VWS V13.01,2012-01-01 19:01:00,
2012-01-01 13:06:00,56.7,30.7,31.60,NW,316,4.0,8.7,37,0.00,,,0.00,VWS V13.01,2012-01-01 19:06:00,
2012-01-01 13:11:00,57.0,31.0,31.60,NW,324,8.1,10.1,37,0.00,,,0.00,VWS V13.01,2012-01-01 19:11:00,
2012-01-01 13:16:00,56.7,30.7,31.60,West,278,5.8,7.2,37,0.00,,,0.00,VWS V13.01,2012-01-01 19:16:00,
2012-01-01 13:21:00,56.5,30.5,31.60,West,273,6.3,6.3,37,0.00,,,0.00,VWS V13.01,2012-01-01 19:21:00,
2012-01-01 13:26:00,56.5,30.5,31.60,West,270,4.0,5.8,37,0.00,,,0.00,VWS V13.01,2012-01-01 19:26:00,
2012-01-01 13:31:00,56.8,29.5,31.60,SSW,208,8.7,8.7,35,0.00,,,0.00,VWS V13.01,2012-01-01 19:31:00,
2012-01-01 13:36:00,56.8,29.5,31.60,NW,311,8.7,8.7,35,0.00,,,0.00,VWS V13.01,2012-01-01 19:36:00,
2012-01-01 13:41:00,56.3,29.0,31.60,WNW,291,13.2,13.2,35,0.00,,,0.00,VWS V13.01,2012-01-01 19:41:00,
2012-01-01 13:46:00,57.0,29.7,31.60,WNW,282,7.6,8.3,35,0.00,,,0.00,VWS V13.01,2012-01-01 19:46:00,
2012-01-01 13:51:00,56.8,29.5,31.60,WSW,241,4.0,7.2,35,0.00,,,0.00,VWS V13.01,2012-01-01 19:51:00,
2012-01-01 13:56:00,57.0,29.7,31.60,NW,320,10.5,10.5,35,0.00,,,0.00,VWS V13.01,2012-01-01 19:56:00,
2012-01-01 14:01:00,56.8,29.5,31.60,West,262,7.6,12.8,35,0.00,,,0.00,VWS V13.01,2012-01-01 20:01:00,
2012-01-01 14:06:00,57.0,29.7,31.60,NW,309,7.6,7.6,35,0.00,,,0.00,VWS V13.01,2012-01-01 20:06:00,
2012-01-01 14:11:00,57.2,29.1,31.60,West,259,4.5,6.3,34,0.00,,,0.00,VWS V13.01,2012-01-01 20:11:00,
2012-01-01 14:16:00,57.2,29.1,31.60,West,280,5.8,8.3,34,0.00,,,0.00,VWS V13.01,2012-01-01 20:16:00,
2012-01-01 14:21:00,56.8,29.5,31.60,WSW,244,5.4,5.8,35,0.00,,,0.00,VWS V13.01,2012-01-01 20:21:00,
2012-01-01 14:26:00,56.7,27.2,31.60,WNW,303,8.3,11.0,32,0.00,,,0.00,VWS V13.01,2012-01-01 20:26:00,
2012-01-01 14:31:00,57.0,27.5,31.60,West,270,8.3,13.2,32,0.00,,,0.00,VWS V13.01,2012-01-01 20:31:00,
2012-01-01 14:36:00,56.7,27.2,31.60,WNW,298,8.1,10.1,32,0.00,,,0.00,VWS V13.01,2012-01-01 20:36:00,
2012-01-01 14:41:00,56.8,27.3,31.60,West,269,4.9,8.7,32,0.00,,,0.00,VWS V13.01,2012-01-01 20:41:00,
2012-01-01 14:46:00,56.7,27.2,31.60,NW,324,8.7,8.7,32,0.00,,,0.00,VWS V13.01,2012-01-01 20:46:00,
2012-01-01 14:51:00,56.3,26.8,31.60,WNW,297,6.3,8.7,32,0.00,,,0.00,VWS V13.01,2012-01-01 20:51:00,
2012-01-01 14:56:00,56.3,26.8,31.60,NW,320,5.8,12.8,32,0.00,,,0.00,VWS V13.01,2012-01-01 20:56:00,
2012-01-01 15:01:00,56.1,26.7,31.60,WNW,300,5.8,8.1,32,0.00,,,0.00,VWS V13.01,2012-01-01 21:01:00,
2012-01-01 15:06:00,56.3,26.8,31.60,WNW,301,8.1,8.1,32,0.00,,,0.00,VWS V13.01,2012-01-01 21:06:00,
2012-01-01 15:11:00,56.3,26.8,31.60,NW,314,5.8,6.3,32,0.00,,,0.00,VWS V13.01,2012-01-01 21:11:00,
2012-01-01 15:16:00,56.3,26.8,31.60,NW,309,6.3,8.3,32,0.00,,,0.00,VWS V13.01,2012-01-01 21:16:00,
2012-01-01 15:21:00,55.9,26.5,31.60,West,273,7.6,7.6,32,0.00,,,0.00,VWS V13.01,2012-01-01 21:21:00,
2012-01-01 15:26:00,56.1,28.9,31.60,West,276,5.4,8.1,35,0.00,,,0.00,VWS V13.01,2012-01-01 21:26:00,
2012-01-01 15:31:00,55.9,26.5,31.60,WSW,245,7.6,12.8,32,0.00,,,0.00,VWS V13.01,2012-01-01 21:31:00,
2012-01-01 15:36:00,55.6,26.2,31.60,West,261,6.3,12.8,32,0.00,,,0.00,VWS V13.01,2012-01-01 21:36:00,
2012-01-01 15:41:00,55.4,26.0,31.60,West,266,10.5,10.5,32,0.00,,,0.00,VWS V13.01,2012-01-01 21:41:00,
2012-01-01 15:46:00,55.4,26.0,31.60,West,277,4.5,11.9,32,0.00,,,0.00,VWS V13.01,2012-01-01 21:46:00,
2012-01-01 15:51:00,55.2,26.6,31.60,WSW,258,8.7,8.7,33,0.00,,,0.00,VWS V13.01,2012-01-01 21:51:00,
2012-01-01 15:56:00,55.0,26.5,31.60,WSW,250,6.3,12.8,33,0.00,,,0.00,VWS V13.01,2012-01-01 21:56:00,
2012-01-01 16:01:00,54.9,26.3,31.60,WSW,252,8.1,8.1,33,0.00,,,0.00,VWS V13.01,2012-01-01 22:01:00,
2012-01-01 16:06:00,54.9,26.3,31.60,West,274,8.3,10.5,33,0.00,,,0.00,VWS V13.01,2012-01-01 22:06:00,
2012-01-01 16:11:00,54.9,26.3,31.60,WNW,288,3.6,5.8,33,0.00,,,0.00,VWS V13.01,2012-01-01 22:11:00,
2012-01-01 16:16:00,54.7,26.2,31.60,NNW,327,5.8,5.8,33,0.00,,,0.00,VWS V13.01,2012-01-01 22:16:00,
2012-01-01 16:21:00,54.7,27.6,31.60,NNW,328,4.0,5.4,35,0.00,,,0.00,VWS V13.01,2012-01-01 22:21:00,
2012-01-01 16:26:00,54.3,25.9,31.60,WNW,301,5.4,5.4,33,0.00,,,0.00,VWS V13.01,2012-01-01 22:26:00,
2012-01-01 16:30:00,54.1,27.1,31.60,WSW,256,4.0,4.0,35,0.00,,,0.00,VWS V13.01,2012-01-01 22:30:00,
2012-01-01 16:36:00,54.0,27.0,31.60,West,270,5.4,5.4,35,0.00,,,0.00,VWS V13.01,2012-01-01 22:36:00,
2012-01-01 16:41:00,53.4,27.1,31.60,West,262,5.8,8.1,36,0.00,,,0.00,VWS V13.01,2012-01-01 22:41:00,
2012-01-01 16:46:00,53.2,27.0,31.60,West,266,4.9,5.8,36,0.00,,,0.00,VWS V13.01,2012-01-01 22:46:00,
2012-01-01 16:51:00,52.9,26.7,31.60,West,273,8.1,8.1,36,0.00,,,0.00,VWS V13.01,2012-01-01 22:51:00,
2012-01-01 16:56:00,52.7,26.5,31.60,WSW,255,7.6,7.6,36,0.00,,,0.00,VWS V13.01,2012-01-01 22:56:00,
2012-01-01 17:01:00,52.3,26.2,31.60,West,264,4.9,4.9,36,0.00,,,0.00,VWS V13.01,2012-01-01 23:01:00,
2012-01-01 17:06:00,52.0,25.9,31.60,WNW,296,5.8,5.8,36,0.00,,,0.00,VWS V13.01,2012-01-01 23:06:00,
2012-01-01 17:11:00,51.6,25.6,31.60,WSW,240,5.4,5.4,36,0.00,,,1.00,VWS V13.01,2012-01-01 23:11:00,
2012-01-01 17:16:00,51.4,25.4,31.60,West,267,5.4,5.4,36,9.23,,,0.00,VWS V13.01,2012-01-01 23:16:00,
2012-01-01 17:21:00,51.3,25.2,31.60,West,279,6.3,6.3,36,0.00,,,0.00,VWS V13.01,2012-01-01 23:21:00,
2012-01-01 17:26:00,51.1,25.1,31.60,WSW,251,3.1,4.9,36,0.00,,,0.00,VWS V13.01,2012-01-01 23:26:00,
2012-01-01 17:31:00,50.9,24.9,31.60,West,269,3.6,6.3,36,0.00,,,0.00,VWS V13.01,2012-01-01 23:31:00,
2012-01-01 17:36:00,50.7,24.8,31.60,WSW,258,8.1,8.1,36,0.00,,,0.00,VWS V13.01,2012-01-01 23:36:00,
2012-01-01 17:41:00,50.7,24.8,31.60,West,262,4.0,4.9,36,0.00,,,0.00,VWS V13.01,2012-01-01 23:41:00,
2012-01-01 17:46:00,50.5,24.6,31.60,WNW,292,3.6,5.8,36,0.00,,,0.00,VWS V13.01,2012-01-01 23:46:00,
2012-01-01 17:51:00,50.4,24.4,31.60,West,266,2.7,3.1,36,0.00,,,0.00,VWS V13.01,2012-01-01 23:51:00,
2012-01-01 17:56:00,50.0,24.1,31.60,WSW,257,5.8,5.8,36,0.00,,,0.00,VWS V13.01,2012-01-01 23:56:00,
2012-01-01 18:01:00,50.0,24.1,31.60,West,264,4.9,4.9,36,0.00,,,0.00,VWS V13.01,2012-01-02 00:01:00,
2012-01-01 18:06:00,49.8,24.0,31.60,WSW,240,4.0,4.0,36,0.00,,,0.00,VWS V13.01,2012-01-02 00:06:00,
2012-01-01 18:11:00,49.5,23.6,31.60,SW,233,5.4,6.3,36,0.00,,,0.00,VWS V13.01,2012-01-02 00:11:00,
2012-01-01 18:16:00,48.9,23.2,31.60,West,272,5.8,5.8,36,0.00,,,0.00,VWS V13.01,2012-01-02 00:16:00,
2012-01-01 18:21:00,48.7,23.0,31.60,WSW,255,4.9,5.4,36,0.00,,,0.00,VWS V13.01,2012-01-02 00:21:00,
2012-01-01 18:26:00,48.7,23.0,31.60,WSW,258,3.6,3.6,36,0.00,,,0.00,VWS V13.01,2012-01-02 00:26:00,
2012-01-01 18:31:00,48.7,23.0,31.60,West,264,4.0,4.0,36,0.00,,,0.00,VWS V13.01,2012-01-02 00:31:00,
2012-01-01 18:36:00,48.6,22.8,31.60,West,261,2.7,3.6,36,0.00,,,0.00,VWS V13.01,2012-01-02 00:36:00,
2012-01-01 18:41:00,48.6,22.8,31.60,SW,234,3.1,4.0,36,0.00,,,0.00,VWS V13.01,2012-01-02 00:41:00,
2012-01-01 18:46:00,48.4,22.7,31.60,WSW,241,3.1,3.6,36,0.00,,,0.00,VWS V13.01,2012-01-02 00:46:00,
2012-01-01 18:51:00,48.0,23.0,31.60,SW,231,3.6,3.6,37,0.00,,,0.00,VWS V13.01,2012-01-02 00:51:00,
2012-01-01 18:56:00,47.5,22.5,31.60,West,262,2.2,2.7,37,0.00,,,0.00,VWS V13.01,2012-01-02 00:56:00,
2012-01-01 19:01:00,47.1,22.2,31.60,WSW,250,3.6,3.6,37,0.00,,,0.00,VWS V13.01,2012-01-02 01:01:00,
2012-01-01 19:06:00,46.9,22.0,31.60,West,265,3.1,3.6,37,0.00,,,0.00,VWS V13.01,2012-01-02 01:06:00,
2012-01-01 19:11:00,46.9,22.0,31.60,West,267,4.0,4.0,37,0.00,,,0.00,VWS V13.01,2012-01-02 01:11:00,
2012-01-01 19:16:00,47.1,22.2,31.60,SW,231,3.6,3.6,37,0.00,,,0.00,VWS V13.01,2012-01-02 01:16:00,
2012-01-01 19:21:00,47.1,22.2,31.60,WSW,242,4.0,4.5,37,0.00,,,0.00,VWS V13.01,2012-01-02 01:21:00,
2012-01-01 19:26:00,46.9,22.0,31.60,SW,235,3.1,3.1,37,0.00,,,0.00,VWS V13.01,2012-01-02 01:26:00,
2012-01-01 19:31:00,46.6,21.7,31.60,WSW,237,0.0,0.0,37,0.00,,,0.00,VWS V13.01,2012-01-02 01:31:00,
2012-01-01 19:36:00,46.0,21.2,31.60,SW,235,0.0,0.0,37,0.00,,,0.00,VWS V13.01,2012-01-02 01:36:00,
2012-01-01 19:41:00,45.3,22.4,31.60,SW,225,0.0,0.0,40,0.00,,,0.00,VWS V13.01,2012-01-02 01:41:00,
2012-01-01 19:46:00,44.8,22.0,31.60,SW,225,0.0,0.0,40,0.00,,,0.00,VWS V13.01,2012-01-02 01:46:00,
2012-01-01 19:51:00,44.2,21.5,31.60,SW,225,0.0,0.0,40,0.00,,,0.00,VWS V13.01,2012-01-02 01:51:00,
2012-01-01 19:56:00,44.1,21.3,31.60,SW,225,0.0,0.0,40,0.00,,,0.00,VWS V13.01,2012-01-02 01:56:00,
2012-01-01 20:01:00,44.1,21.3,31.60,WSW,241,0.0,2.7,40,0.00,,,0.00,VWS V13.01,2012-01-02 02:01:00,
2012-01-01 20:06:00,44.1,21.3,31.60,WSW,241,0.0,0.0,40,0.00,,,0.00,VWS V13.01,2012-01-02 02:06:00,
2012-01-01 20:11:00,43.9,21.1,31.60,South,173,2.2,2.7,40,0.00,,,0.00,VWS V13.01,2012-01-02 02:11:00,
2012-01-01 20:15:00,43.7,21.0,31.60,South,177,2.7,3.1,40,0.00,,,0.00,VWS V13.01,2012-01-02 02:15:00,
2012-01-01 20:20:00,43.3,22.4,31.60,SSE,162,3.1,3.6,43,0.00,,,0.00,VWS V13.01,2012-01-02 02:20:00,
2012-01-01 20:25:00,42.8,21.9,31.60,SSE,163,0.0,0.0,43,0.00,,,0.00,VWS V13.01,2012-01-02 02:25:00,
2012-01-01 20:30:00,42.4,21.5,31.60,SSE,165,0.0,0.0,43,0.00,,,0.00,VWS V13.01,2012-01-02 02:30:00,
2012-01-01 20:35:00,41.9,21.0,31.60,SSE,147,0.0,0.0,43,0.00,,,0.00,VWS V13.01,2012-01-02 02:35:00,
2012-01-01 20:40:00,41.4,21.1,31.60,South,177,2.7,3.1,44,0.00,,,0.00,VWS V13.01,2012-01-02 02:40:00,
2012-01-01 20:45:00,41.0,20.8,31.60,South,177,0.0,0.0,44,0.00,,,0.00,VWS V13.01,2012-01-02 02:45:00,
2012-01-01 20:50:00,40.8,20.6,31.60,South,176,0.0,0.0,44,0.00,,,0.00,VWS V13.01,2012-01-02 02:50:00,
2012-01-01 20:55:00,40.6,20.5,31.60,South,180,2.7,2.7,44,0.00,,,0.00,VWS V13.01,2012-01-02 02:55:00,
2012-01-01 21:00:00,40.6,21.0,31.60,South,189,3.1,3.6,45,0.00,,,0.00,VWS V13.01,2012-01-02 03:00:00,
2012-01-01 21:05:00,40.5,20.8,31.60,South,189,0.0,0.0,45,0.00,,,0.00,VWS V13.01,2012-01-02 03:05:00,
2012-01-01 21:10:00,39.7,23.6,31.60,South,189,0.0,0.0,52,0.00,,,0.00,VWS V13.01,2012-01-02 03:10:00,
2012-01-01 21:15:00,38.7,22.6,31.60,South,184,3.1,3.6,52,0.00,,,0.00,VWS V13.01,2012-01-02 03:15:00,
2012-01-01 21:20:00,38.1,23.0,31.60,SSW,192,0.0,0.0,54,0.00,,,0.00,VWS V13.01,2012-01-02 03:20:00,
2012-01-01 21:25:00,37.8,22.6,31.60,SSW,208,0.0,0.0,54,0.00,,,0.00,VWS V13.01,2012-01-02 03:25:00,
2012-01-01 21:30:00,37.9,21.9,31.60,SSW,197,0.0,0.0,52,0.00,,,0.00,VWS V13.01,2012-01-02 03:30:00,
2012-01-01 21:35:00,38.1,22.1,31.60,SSW,197,0.0,0.0,52,0.00,,,0.00,VWS V13.01,2012-01-02 03:35:00,
2012-01-01 21:40:00,38.1,21.6,31.60,South,189,0.0,0.0,51,0.00,,,0.00,VWS V13.01,2012-01-02 03:40:00,
2012-01-01 21:45:00,38.3,23.6,31.60,SSW,212,2.2,2.2,55,0.00,,,0.00,VWS V13.01,2012-01-02 03:45:00,
2012-01-01 21:50:00,37.8,23.1,31.60,SW,221,0.0,0.0,55,0.00,,,0.00,VWS V13.01,2012-01-02 03:50:00,
2012-01-01 21:55:00,37.6,23.3,31.60,South,187,0.0,2.2,56,0.00,,,0.00,VWS V13.01,2012-01-02 03:55:00,
2012-01-01 22:00:00,37.2,22.1,31.60,SW,234,3.6,3.6,54,0.00,,,0.00,VWS V13.01,2012-01-02 04:00:00,
2012-01-01 22:05:00,38.3,22.7,31.60,South,180,2.2,2.7,53,0.00,,,0.00,VWS V13.01,2012-01-02 04:05:00,
2012-01-01 22:10:00,39.2,23.1,31.60,SSW,213,2.7,3.1,52,0.00,,,0.00,VWS V13.01,2012-01-02 04:10:00,
2012-01-01 22:15:00,39.2,22.1,31.60,SSW,197,2.7,3.1,50,0.00,,,0.00,VWS V13.01,2012-01-02 04:15:00,
2012-01-01 22:20:00,39.2,21.7,31.60,West,259,6.3,6.3,49,0.00,,,0.00,VWS V13.01,2012-01-02 04:20:00,
2012-01-01 22:25:00,39.7,22.2,31.60,NW,305,3.6,3.6,49,0.00,,,0.00,VWS V13.01,2012-01-02 04:25:00,
2012-01-01 22:30:00,41.0,22.8,31.60,West,260,3.1,3.1,48,0.00,,,0.00,VWS V13.01,2012-01-02 04:30:00,
2012-01-01 22:35:00,42.3,23.5,31.60,West,281,3.6,3.6,47,0.00,,,0.00,VWS V13.01,2012-01-02 04:35:00,
2012-01-01 22:40:00,43.3,24.0,31.60,West,271,3.6,3.6,46,0.00,,,0.00,VWS V13.01,2012-01-02 04:40:00,
2012-01-01 22:46:00,44.2,24.3,31.60,WSW,252,3.6,5.4,45,0.00,,,0.00,VWS V13.01,2012-01-02 04:46:00,
2012-01-01 22:51:00,44.6,24.6,31.60,WNW,296,4.9,6.3,45,0.00,,,0.00,VWS V13.01,2012-01-02 04:51:00,
2012-01-01 22:56:00,44.8,24.8,31.60,West,273,4.0,4.0,45,0.00,,,0.00,VWS V13.01,2012-01-02 04:56:00,
2012-01-01 23:00:00,45.0,24.4,31.60,WNW,297,8.1,8.1,44,0.00,,,0.00,VWS V13.01,2012-01-02 05:00:00,
2012-01-01 23:05:00,45.3,24.7,31.60,WNW,287,4.0,4.9,44,0.00,,,0.00,VWS V13.01,2012-01-02 05:05:00,
2012-01-01 23:10:00,45.1,24.5,31.60,WNW,299,5.4,7.6,44,0.00,,,0.00,VWS V13.01,2012-01-02 05:10:00,
2012-01-01 23:15:00,44.8,24.2,31.60,WNW,296,4.0,4.0,44,0.00,,,0.00,VWS V13.01,2012-01-02 05:15:00,
2012-01-01 23:20:00,44.6,24.0,31.60,NW,305,5.8,5.8,44,0.00,,,0.00,VWS V13.01,2012-01-02 05:20:00,
2012-01-01 23:25:00,44.6,24.0,31.60,NW,309,7.6,8.7,44,0.00,,,0.00,VWS V13.01,2012-01-02 05:25:00,
2012-01-01 23:30:00,44.6,24.0,31.60,WNW,286,4.0,4.9,44,0.00,,,0.00,VWS V13.01,2012-01-02 05:30:00,
2012-01-01 23:35:00,44.8,24.2,31.60,West,259,2.7,4.0,44,0.00,,,0.00,VWS V13.01,2012-01-02 05:35:00,
2012-01-01 23:40:00,44.1,23.6,31.60,WNW,303,7.6,10.5,44,0.00,,,0.00,VWS V13.01,2012-01-02 05:40:00,
2012-01-01 23:45:00,44.2,23.7,31.60,West,277,4.0,4.0,44,0.00,,,0.00,VWS V13.01,2012-01-02 05:45:00,
2012-01-01 23:50:00,44.2,23.7,31.60,WNW,289,5.8,5.8,44,0.00,,,0.00,VWS V13.01,2012-01-02 05:50:00,
2012-01-01 23:55:00,44.1,23.6,31.60,NW,304,4.0,4.0,44,0.00,,,0.00,VWS V13.01,2012-01-02 05:55:00,